Home   Weather   Kokkola   Past weeks

Flag for Finland Past Weather in Kokkola, Finland — Yesterday and Last 2 Weeks

Now
27 °F

Passing clouds.


Feels Like: 18 °F
Forecast: 22 / 26 °F
Wind: 8 mph from Northwest

Location: Kruunupyy

Current Time: Dec 10, 2016 at 7:21:25 am

Latest Report: Dec 10, 2016 at 6:50 am


Visibility: N/A

Pressure: 29.71 "Hg

Humidity: 74%

Dew Point: 19 °F

Location of KokkolaLocation

Past Weather in Kokkola — Graph

°F

Kokkola Temperature Yesterday

Maximum temperature yesterday: 34 °F (at 12:20 am)
Minimum temperature yesterday: 21 °F (at 10:20 am)
Average temperature yesterday: 29 °F

High & Low Weather Summary for the Past Weeks

 TemperatureHumidityPressure
High41 °F (Dec 5, 1:20 am)100% (Nov 25, 1:50 pm)30.24 "Hg (Nov 25, 1:50 pm)
Low-2 °F (Dec 6, 8:50 am)51% (Dec 9, 6:50 pm)29.03 "Hg (Nov 26, 12:50 pm)
Average27 °F88%29.63 "Hg
* Reported Nov 25 6:20 am — Dec 10 6:20 am, Kokkola, Weather by CustomWeather, © 2016

Note: Actual official high and low records may vary slightly from our data, if they occured in-between our weather recording intervals... More about our weather records

Advertising

Kokkola Weather History for the Previous 24 Hours

Scroll right to see more
 ConditionsComfort  
Time TempWeatherWind HumidityBarometerVisibility
6:20 am
Sat, Dec 10
28 °FPassing clouds.8 mph59%29.71 "HgN/A
5:50 am28 °FPassing clouds.9 mph59%29.71 "HgN/A
5:20 am28 °FPassing clouds.9 mph59%29.71 "HgN/A
4:50 am28 °FPassing clouds.10 mph55%29.71 "HgN/A
4:20 am28 °FPassing clouds.9 mph64%29.71 "HgN/A
3:50 am28 °FPassing clouds.10 mph64%29.71 "HgN/A
3:20 am28 °FPassing clouds.8 mph64%29.71 "HgN/A
2:50 am28 °FPassing clouds.10 mph64%29.71 "HgN/A
2:20 am28 °FPassing clouds.12 mph64%29.71 "HgN/A
1:50 am28 °FPassing clouds.10 mph69%29.71 "HgN/A
1:20 am28 °FPassing clouds.9 mph69%29.71 "HgN/A
12:50 am28 °FPassing clouds.10 mph69%29.68 "HgN/A
12:20 am28 °FPassing clouds.12 mph69%29.68 "HgN/A
9:20 pm
Fri, Dec 9
28 °FPassing clouds.14 mph55%29.65 "HgN/A
8:50 pm28 °FPassing clouds.13 mph55%29.62 "HgN/A
8:20 pm28 °FPassing clouds.14 mph51%29.62 "HgN/A
7:50 pm28 °FPassing clouds.15 mph51%29.62 "HgN/A
7:20 pm28 °FPassing clouds.13 mph55%29.59 "HgN/A
6:50 pm28 °FPassing clouds.15 mph51%29.59 "HgN/A
6:20 pm28 °FPassing clouds.14 mph55%29.59 "HgN/A
5:50 pm28 °FPassing clouds.14 mph59%29.59 "HgN/A
5:20 pm30 °FPassing clouds.14 mph55%29.59 "HgN/A
4:50 pm30 °FPassing clouds.13 mph55%29.56 "HgN/A
4:20 pm30 °FPassing clouds.13 mph55%29.56 "HgN/A
3:50 pm30 °FPassing clouds.12 mph59%29.53 "HgN/A
3:20 pm28 °FPassing clouds.7 mph69%29.53 "HgN/A
2:50 pm30 °FPassing clouds.10 mph64%29.50 "HgN/A
2:20 pm30 °FSunny.9 mph69%29.50 "Hg10 mi
1:50 pm30 °FPartly sunny.8 mph69%29.47 "HgN/A
1:20 pm30 °FPartly sunny.8 mph69%29.47 "HgN/A
12:50 pm30 °FMostly cloudy.8 mph80%29.47 "HgN/A
12:20 pm25 °FPartly sunny.2 mph93%29.45 "HgN/A
11:50 am23 °FCloudy.No wind100%29.45 "HgN/A
11:20 am25 °FSunny.No wind100%29.42 "Hg10 mi
10:50 am25 °FPassing clouds.2 mph100%29.42 "HgN/A
10:20 am21 °FSunny.3 mph100%29.39 "Hg10 mi
9:50 am23 °FFog.2 mph100%29.39 "HgN/A
9:20 am23 °FFog.2 mph100%29.39 "HgN/A
8:50 am23 °FClear.2 mph100%29.36 "Hg10 mi
8:20 am27 °FIce fog.2 mph93%29.36 "Hg0 mi
7:50 am28 °FClear.2 mph100%29.36 "Hg10 mi
7:20 am28 °FClear.2 mph93%29.36 "Hg10 mi
Weather by CustomWeather, © 2016

See weather overviewHow to use our weather pages